Regional Weather Roundup
Issued by NWS

Home | Current Version | Previous Version | Text Only | Print | Product List | Glossary On
Versions: 1 2 3 4 5 6 7 8 9 10 11 12 13 14 15 16 17 18 19 20 21 22 23 24 25 26 27 28 29 30 31 32 33 34 35 36 37 38 39 40 41 42 43 44 45 46 47 48 49 50
000
ASUS43 KLOT 281110
RWRIL

ILLINOIS REGIONAL WEATHER ROUNDUP
NATIONAL WEATHER SERVICE CHICAGO/ROMEOVILLE IL
600 AM CDT THU AUG 28 2014

NOTE: "FAIR" INDICATES FEW OR NO CLOUDS BELOW 12,000 FEET WITH NO
SIGNIFICANT WEATHER AND/OR OBSTRUCTIONS TO VISIBILITY.

* THESE STATIONS ARE NOT UNDER NWS QUALITY CONTROL. THEY ALSO MAY NOT
  REPORT WEATHER SUCH AS PRECIPITATION OR FOG.

ILZ001-002-007-009-015-016-024-281200-
NORTHWEST ILLINOIS

CITY           SKY/WX    TMP DP  RH WIND       PRES   REMARKS
MOLINE         CLOUDY    66  62  87 E8        30.08S
STERLING*      MOCLDY    63  59  88 E3        30.12R
SAVANNA*       MOCLDY    64  61  90 E3        30.12R
$$

ILZ003-004-008-010-011-017-018-281200-
NORTH CENTRAL ILLINOIS

CITY           SKY/WX    TMP DP  RH WIND       PRES   REMARKS
ROCKFORD       CLOUDY    64  60  87 E6        30.14R
FREEPORT*      PTCLDY    60  59  97 CALM      30.15R FOG
ROCHELLE*      PTCLDY    62  60  91 E3        30.13R
DE KALB*       CLOUDY    60  58  92 E5        30.14R
PERU*          CLEAR     63  61  94 E6        30.12S
$$

ILZ005-006-012>014-019>023-281200-
NORTHEAST ILLINOIS

CITY           SKY/WX    TMP DP  RH WIND       PRES   REMARKS
CHICAGO-OHARE  MOCLDY    68  56  65 E8        30.13R
CHICAGO-MIDWAY PTCLDY    69  59  70 E9        30.12S
AURORA         CLEAR     62  58  86 E3        30.13R
LANSING*       PTCLDY    61  56  81 E6        30.13S
JOLIET*        CLEAR     62  59  90 CALM      30.14R
WAUKEGAN       CLEAR     64  56  75 E6        30.14R
DUPAGE AIRPORT MOCLDY    65  59  81 E5        30.12S
KANKAKEE*      CLEAR     60  57  92 E3        30.13R
WHEELING       MOCLDY    67  57  70 E5        30.14S
MORRIS*        CLEAR     61  61 100 CALM      30.12R FOG
ROMEOVILLE*    CLEAR     63  59  89 E6        30.13R
NORTHERLY ISL    N/A     68  58  70 E16         N/A
$$

LMZ740>746-281200-
SOUTHERN LAKE MICHIGAN

STATION/POSITION SKY/WX   TEMP    WIND        PRES    VSBY  WAVE
                          AIR SEA DIR/SP/G                  HT/PER
                          (F)     (DEG/KT/KT) (MB)    (MI)  (FT/S)
SOUTHERN BUOY              65 69   90/ 14/ 16 1020.8S         2/ 3
WAUKEGAN HARBOR            68     100/ 15/ 18   N/A
HARRISON CRIB              67      70/ 18/ 21   N/A
BURNHAM HARBOR             68      60/ 15/ 16   N/A
CALUMET HARBOR             68      60/ 12/ 15 1018.9F
MICHIGAN CITY              60      40/  8/ 10   N/A
MICHIGAN CITY 6N           65 73   80/ 14/ 17   N/A           3/ 5
ST. JOSEPH                 62 72   80/ 14/ 16   N/A           2/ 4
$$

ILZ025>027-034>036-040-047-049-050-058-095>099-281200-
WEST-CENTRAL ILLINOIS

CITY           SKY/WX    TMP DP  RH WIND       PRES   REMARKS
QUINCY         MOCLDY    71  70  96 E5        30.04S FOG
GALESBURG*     CLOUDY    66  61  83 E8        30.08S
MACOMB*        CLOUDY    68  65  89 E6        30.09R
JACKSONVILLE*  CLEAR     71  70  96 E7        30.07S
PITTSFIELD*    MOCLDY    70  68  93 CALM      30.06S FOG
$$

ILZ028>032-037-038-041>044-048-051>054-059>061-281200-
CENTRAL ILLINOIS

CITY           SKY/WX    TMP DP  RH WIND       PRES   REMARKS
PONTIAC        PTCLDY    64  61  88 CALM      30.12R
DECATUR        CLOUDY    67  64  90 E8        30.09R
PEORIA         MOCLDY    69  60  73 E8        30.09R
LACON*         CLOUDY    64  60  86 E8        30.09S
LINCOLN*       CLOUDY    68  63  84 E6        30.06S
SPRINGFIELD    CLOUDY    70  65  84 E8        30.07S
TAYLORVILLE    MOCLDY    68  64  88 E7        30.07R
$$

ILZ033-039-045-046-055>057-062-063-281200-
EAST-CENTRAL ILLINOIS

CITY           SKY/WX    TMP DP  RH WIND       PRES   REMARKS
CHAMPAIGN      LGT RAIN  65  63  93 NE7       30.11R
DANVILLE*      LGT RAIN  64  62  94 NE5       30.09S
RANTOUL*       MOCLDY    66  62  87 CALM      30.12R
MATTOON        PTCLDY    67  64  90 NE6       30.07S
PARIS*         LGT RAIN  65  64  96 E7        30.09F
$$

ILZ079-100>102-281200-
SOUTHWEST ILLINOIS

CITY           SKY/WX    TMP DP  RH WIND       PRES   REMARKS
BELLEVILLE     PTCLDY    70  70 100 CALM      30.04S FOG
SPARTA*        PTCLDY    71  70  98 CALM      30.05F
$$

ILZ064>066-069>071-074>076-080>082-084>086-088>090-092>094-281200-
SOUTH-CENTRAL ILLINOIS

CITY           SKY/WX    TMP DP  RH WIND       PRES   REMARKS
CARBONDALE     MOCLDY    73  70  90 CALM      30.04S
CAIRO*         CLOUDY    72  69  89 CALM      30.03R FOG
EFFINGHAM*     RAIN      69  66  88 E3        30.07R
MARION         MOCLDY    73  72  94 CALM      30.04S
MT. VERNON     MOCLDY    72  66  83 N5        30.05S
SALEM*         PTCLDY    74  73  95 CALM      30.05S FOG
METROPOLIS*    PTCLDY    73  73 100 CALM      30.02S FOG
$$

ILZ067-068-072-073-078-083-087-091-281200-
SOUTHEAST ILLINOIS

CITY           SKY/WX    TMP DP  RH WIND       PRES   REMARKS
LAWRENCEVILLE  PTCLDY    72  70  93 NE5       30.06R
FLORA*         PTCLDY    72  70  94 NE3       30.06R
FAIRFIELD*     CLOUDY    73  72  94 N3        30.04S
HARRISBURG*    MOCLDY    71  71 100 CALM      30.05R
ROBINSON*      PTCLDY    71  70  98 CALM      30.08R
CARMI*           N/A     73  73  97 CALM      30.04R FOG
$$

ABBREVIATIONS USED IN REMARKS
   TC - TEMPERATURE IN CELSIUS
  WCI - WIND CHILL INDEX
   HX - HEAT INDEX
  VSB - VISIBILITY
$$



USA.gov is the U.S. government's official web portal to all federal, state and local government web resources and services.